• In Belarus
  • List of Countries
  • For 7 days
  • Water Temperature
  • Weather Map
  • Weather Widgets
  • user-avatar
    Login

    Hourly Weather Port-au-Princ

    Today, 22 September, Sunday

    Time Temperature Precipitation Wind Pressure Humidity
    00:00 +26°C° 0.1 mm 1 mps 735 mmHg 87%
    01:00 +26°C° 0.1 mm 1 mps 734 mmHg 87%
    02:00 +26°C° 0 mm 1 mps 734 mmHg 87%
    03:00 +26°C° 0 mm 1 mps 734 mmHg 87%
    04:00 +26°C° 0 mm 1 mps 734 mmHg 87%
    05:00 +26°C° 0 mm 1 mps 734 mmHg 85%
    06:00 +27°C° 0 mm 1 mps 735 mmHg 84%
    07:00 +27°C° 0 mm 1 mps 735 mmHg 82%
    08:00 +28°C° 0 mm 1 mps 735 mmHg 78%
    09:00 +29°C° 0 mm 1 mps 735 mmHg 74%
    10:00 +30°C° 0 mm 1 mps 735 mmHg 69%
    11:00 +31°C° 0 mm 1 mps 735 mmHg 68%
    12:00 +31°C° 0 mm 1 mps 735 mmHg 67%
    13:00 +32°C° 0 mm 1 mps 734 mmHg 66%
    14:00 +31°C° 0.8 mm 1 mps 734 mmHg 68%
    15:00 +31°C° 0.8 mm 1 mps 734 mmHg 71%
    16:00 +30°C° 0.8 mm 1 mps 733 mmHg 74%
    17:00 +29°C° 0.9 mm 1 mps 734 mmHg 78%
    18:00 +28°C° 0.9 mm 1 mps 734 mmHg 81%
    19:00 +27°C° 0.9 mm 1 mps 734 mmHg 85%
    20:00 +27°C° 0.3 mm 1 mps 735 mmHg 86%
    21:00 +27°C° 0.3 mm 1 mps 735 mmHg 86%
    22:00 +27°C° 0.3 mm 1 mps 735 mmHg 86%
    23:00 +27°C° 0 mm 1 mps 735 mmHg 87%

    Tomorrow, 23 September, Monday

    Time Temperature Precipitation Wind Pressure Humidity
    00:00 +27°C° 0 mm 1 mps 735 mmHg 87%
    01:00 +26°C° 0 mm 1 mps 735 mmHg 88%
    02:00 +26°C° 0 mm 1 mps 734 mmHg 88%
    03:00 +26°C° 0 mm 1 mps 734 mmHg 88%
    04:00 +26°C° 0 mm 1 mps 734 mmHg 88%
    05:00 +26°C° 0 mm 1 mps 734 mmHg 87%
    06:00 +27°C° 0 mm 1 mps 734 mmHg 85%
    07:00 +27°C° 0 mm 1 mps 735 mmHg 84%
    08:00 +28°C° 0 mm 1 mps 735 mmHg 78%
    09:00 +30°C° 0 mm 1 mps 735 mmHg 72%
    10:00 +31°C° 0 mm 1 mps 735 mmHg 67%
    11:00 +31°C° 0 mm 1 mps 735 mmHg 66%
    12:00 +31°C° 0 mm 1 mps 735 mmHg 65%
    13:00 +32°C° 0 mm 2 mps 734 mmHg 64%
    14:00 +31°C° 0.5 mm 1 mps 734 mmHg 66%
    15:00 +31°C° 0.5 mm 1 mps 734 mmHg 69%
    16:00 +30°C° 0.5 mm 1 mps 733 mmHg 71%
    17:00 +29°C° 0.5 mm 1 mps 733 mmHg 75%
    18:00 +28°C° 0.5 mm 1 mps 734 mmHg 79%
    19:00 +25°C° 0.5 mm 0 mps 734 mmHg 83%
    20:00 +25°C° 0.1 mm 0 mps 734 mmHg 84%
    21:00 +25°C° 0.1 mm 0 mps 734 mmHg 84%
    22:00 +24°C° 0.1 mm 0 mps 734 mmHg 85%
    23:00 +26°C° 0.2 mm 1 mps 734 mmHg 85%

    Day after tomorrow, 24 September, Tuesday

    Time Temperature Precipitation Wind Pressure Humidity
    00:00 +26°C° 0.2 mm 1 mps 734 mmHg 85%
    01:00 +26°C° 0.2 mm 1 mps 733 mmHg 85%
    02:00 +26°C° 0 mm 1 mps 733 mmHg 85%
    03:00 +26°C° 0 mm 1 mps 733 mmHg 85%
    04:00 +26°C° 0 mm 1 mps 733 mmHg 85%
    05:00 +26°C° 0 mm 1 mps 733 mmHg 84%
    06:00 +27°C° 0 mm 1 mps 733 mmHg 82%
    07:00 +25°C° 0 mm 0 mps 734 mmHg 81%
    08:00 +28°C° 0.1 mm 1 mps 734 mmHg 78%
    09:00 +29°C° 0.1 mm 1 mps 734 mmHg 74%
    10:00 +30°C° 0.1 mm 1 mps 735 mmHg 71%
    11:00 +30°C° 0.9 mm 1 mps 734 mmHg 70%
    12:00 +31°C° 0.9 mm 2 mps 734 mmHg 70%
    13:00 +31°C° 0.9 mm 2 mps 733 mmHg 70%
    14:00 +30°C° 1.1 mm 2 mps 733 mmHg 71%
    15:00 +30°C° 1.1 mm 2 mps 733 mmHg 73%
    16:00 +30°C° 1.1 mm 2 mps 733 mmHg 74%
    17:00 +29°C° 1.3 mm 2 mps 733 mmHg 79%
    18:00 +28°C° 1.3 mm 1 mps 733 mmHg 83%
    19:00 +27°C° 1.3 mm 1 mps 733 mmHg 87%
    20:00 +27°C° 0.7 mm 1 mps 734 mmHg 86%
    21:00 +25°C° 0.7 mm 0 mps 734 mmHg 86%
    22:00 +24°C° 0.7 mm 0 mps 734 mmHg 86%
    23:00 +24°C° 0 mm 0 mps 734 mmHg 86%

    25 September, Wednesday

    Time Temperature Precipitation Wind Pressure Humidity
    00:00 +24°C° 0 mm 0 mps 734 mmHg 85%
    01:00 +24°C° 0 mm 0 mps 733 mmHg 85%
    02:00 +24°C° 0.1 mm 0 mps 733 mmHg 85%
    03:00 +24°C° 0.1 mm 0 mps 733 mmHg 86%
    04:00 +25°C° 0.1 mm 1 mps 733 mmHg 86%
    05:00 +26°C° 0.1 mm 1 mps 733 mmHg 85%
    06:00 +26°C° 0.1 mm 1 mps 734 mmHg 84%
    07:00 +27°C° 0.1 mm 1 mps 734 mmHg 83%
    08:00 +28°C° 0.1 mm 1 mps 734 mmHg 79%
    09:00 +29°C° 0.1 mm 1 mps 735 mmHg 74%
    10:00 +30°C° 0.1 mm 1 mps 735 mmHg 70%
    11:00 +30°C° 0.3 mm 1 mps 735 mmHg 69%
    12:00 +31°C° 0.3 mm 1 mps 734 mmHg 67%
    13:00 +31°C° 0.3 mm 2 mps 734 mmHg 66%
    14:00 +31°C° 0.4 mm 1 mps 734 mmHg 68%
    15:00 +30°C° 0.4 mm 1 mps 733 mmHg 69%
    16:00 +30°C° 0.4 mm 1 mps 733 mmHg 70%
    17:00 +29°C° 0.2 mm 1 mps 733 mmHg 75%
    18:00 +28°C° 0.2 mm 1 mps 734 mmHg 80%
    19:00 +25°C° 0.2 mm 0 mps 734 mmHg 84%
    20:00 +25°C° 0 mm 0 mps 734 mmHg 85%
    21:00 +26°C° 0 mm 1 mps 734 mmHg 85%
    22:00 +26°C° 0 mm 1 mps 735 mmHg 85%
    23:00 +26°C° 0 mm 1 mps 735 mmHg 85%

    26 September, Thursday

    Time Temperature Precipitation Wind Pressure Humidity
    00:00 +26°C° 0 mm 1 mps 734 mmHg 86%
    01:00 +25°C° 0 mm 1 mps 734 mmHg 86%
    02:00 +25°C° 0 mm 1 mps 734 mmHg 87%
    03:00 +25°C° 0 mm 1 mps 734 mmHg 88%
    04:00 +25°C° 0 mm 1 mps 734 mmHg 88%
    05:00 +25°C° 0 mm 1 mps 734 mmHg 87%
    06:00 +26°C° 0 mm 1 mps 735 mmHg 86%
    07:00 +26°C° 0 mm 1 mps 735 mmHg 84%
    08:00 +27°C° 0 mm 1 mps 735 mmHg 79%
    09:00 +29°C° 0 mm 1 mps 736 mmHg 74%
    10:00 +30°C° 0 mm 1 mps 736 mmHg 69%
    11:00 +30°C° 0 mm 1 mps 736 mmHg 67%
    12:00 +31°C° 0 mm 1 mps 735 mmHg 66%
    13:00 +31°C° 0 mm 1 mps 735 mmHg 64%
    14:00 +31°C° 0.1 mm 1 mps 735 mmHg 66%
    15:00 +30°C° 0.1 mm 1 mps 734 mmHg 67%
    16:00 +30°C° 0.1 mm 1 mps 734 mmHg 69%
    17:00 +29°C° 0 mm 1 mps 734 mmHg 73%
    18:00 +28°C° 0 mm 1 mps 735 mmHg 77%
    19:00 +25°C° 0 mm 0 mps 735 mmHg 81%
    20:00 +27°C° 0 mm 1 mps 735 mmHg 81%
    21:00 +26°C° 0 mm 1 mps 736 mmHg 82%
    22:00 +26°C° 0 mm 1 mps 736 mmHg 83%
    23:00 +26°C° 0 mm 1 mps 736 mmHg 84%

    27 September, Friday

    Time Temperature Precipitation Wind Pressure Humidity
    00:00 +26°C° 0 mm 1 mps 735 mmHg 85%
    01:00 +25°C° 0 mm 1 mps 735 mmHg 86%
    02:00 +25°C° 0 mm 1 mps 735 mmHg 86%
    03:00 +25°C° 0 mm 1 mps 735 mmHg 86%
    04:00 +25°C° 0 mm 1 mps 734 mmHg 86%
    05:00 +26°C° 0 mm 1 mps 735 mmHg 84%
    06:00 +26°C° 0 mm 1 mps 735 mmHg 83%
    07:00 +27°C° 0 mm 1 mps 736 mmHg 81%
    08:00 +28°C° 0 mm 1 mps 736 mmHg 77%
    09:00 +29°C° 0 mm 1 mps 736 mmHg 72%
    10:00 +30°C° 0 mm 1 mps 737 mmHg 67%
    11:00 +31°C° 0 mm 1 mps 736 mmHg 66%
    12:00 +31°C° 0 mm 1 mps 736 mmHg 66%
    13:00 +31°C° 0 mm 1 mps 736 mmHg 65%
    14:00 +31°C° 0.1 mm 2 mps 735 mmHg 67%
    15:00 +31°C° 0.1 mm 2 mps 735 mmHg 69%
    16:00 +30°C° 0.1 mm 2 mps 735 mmHg 72%
    17:00 +29°C° 0.1 mm 1 mps 735 mmHg 76%
    18:00 +28°C° 0.1 mm 1 mps 735 mmHg 79%
    19:00 +27°C° 0.1 mm 1 mps 735 mmHg 83%
    20:00 +25°C° 0 mm 0 mps 736 mmHg 83%
    21:00 +25°C° 0 mm 0 mps 736 mmHg 83%
    22:00 +25°C° 0 mm 0 mps 736 mmHg 83%
    23:00 +24°C° 0 mm 0 mps 736 mmHg 84%
    Show more